Starlink 3162

operational
NORAD ID: 49411 Int'l Des: 2021-104 Owner: SPXS Country: US Constellation: starlink
LEOCIRCULAR

Über Starlink 3162

Beschreibung wird geladen...

Live-Position

3D-Globus wird geladen...

Nächste Überflüge

Höhenverlauf

Altitude vs Time

uPlot chart will show altitude changes over time

Zweizeiliger Elementsatz

1 49411U 21104D 25348.92556388 .00001541 00000-0 11489-3 0 9992
2 49411 53.2150 239.6403 0001474 92.7455 267.3706 15.08830480225975
Epoch: 14. Dez. 2025 • Age: 19 hours

Aktueller Status

Höhe 545.4 km
Geschwindigkeit 7.59 km/s
Subsatellitenpunkt -18.74°S, 120.93°W
Startdatum 13. Nov. 2021
Alter 4 years
Typ internet

Technische Details

Klassifizierung Payload
Masse 290.00 kg
Trockenmasse 270.00 kg
Gesamtmasse 290.00 kg
Länge 0.20 m
Durchmesser 2.80 m
Spannweite 9.00 m
Form Box + pan
Hersteller SPXS
Bus-Typ Starlink
Phasenstatus In Orbit
Besitzer/Staat SPXS/US

Große Konstellationen

Loading constellations...